RH
86 82 79 77 74 74 69 68 64 67 71 71 66 66 70 73 70 65 60 58 57 56 53 46 34 33 34 35 35 43 48 47 44 49 55 56 54 46 45 42 38 34 34 60 80 90 69 30 27 29 27 28 37 41
97 96 91 89 86 83 90 82 80 80 77 71 74 79 79 77 74 73 70 70 72 72 72 73 74 72 65 50 47 47 48 56 54 59 54 55 58 64 55 64 49 53 40 41 46 40 33 30 32 33 33 40 41 48
96 97 96 98 98 94 87 81 80 81 78 76 76 80 91 99 94 86 84 82 82 80 72 72 67 70 76 82 80 75 66 56 54 55 62 74 83 75 77 72 69 68 64 62 58 48 47 44 42 39 43 45 50 64
90 88 92 90 84 86 68 55 66 80 90 95 95 95 96 96 100 100 100 97 92 98 92 68 68 74 73 80 88 85 81 80 80 69 64 74 86 86 80 67 61 73 80 71 66 62 57 54 56 56 56 59 58 62
74 79 45 28 43 46 46 51 61 54 32 24 35 60 76 87 93 100 100 100 96 100 96 90 70 66 66 65 67 68 66 72 90 92 89 86 85 99 80 76 62 66 78 96 93 79 86 92 95 94 89 86 87 92
14 15 29 36 19 11 11 11 10 11 11 11 10 9 8 9 11 12 13 29 57 83 86 82 61 43 32 19 16 23 48 69 78 78 80 94 99 100 98 95 69 86 90 89 92 96 99 89 88 89 100 100 97 96
19 16 18 19 17 17 16 15 13 11 9 9 8 8 8 8 8 11 17 22 24 46 66 69 64 64 78 58 64 58 57 54 66 93 99 100 100 99 97 93 80 83 81 96 100 100 86 95 97 96 98 97 97 97
36 33 35 34 33 30 27 22 20 19 15 13 12 9 8 8 9 14 21 25 34 49 91 96 85 65 69 74 82 84 88 90 97 97 98 99 91 98 99 82 83 74 79 98 98 98 98 96 99 97 98 97 97 97
23 30 46 62 90 58 34 25 27 26 24 20 18 14 10 12 19 38 45 54 60 64 88 83 83 78 93 100 98 82 77 73 68 63 55 71 79 100 97 96 98 94 83 100 98 98 100 98 97 96 97 96 96 96
14 20 24 26 36 76 98 85 47 33 28 25 22 20 23 52 58 54 52 59 69 82 100 78 65 78 81 93 97 90 92 88 86 80 83 79 98 96 97 95 96 98 100 97 96 96 94 95 93 92 91 90 90 85
28 17 18 24 26 27 36 66 99 92 69 38 37 34 39 45 54 68 82 83 99 97 93 85 98 99 96 95 85 76 79 78 92 94 91 95 98 98 96 94 90 86 91 92 90 91 87 87 73 62 60 53 43 39
42 49 29 23 25 27 28 23 51 85 96 90 66 48 36 36 75 87 98 100 96 100 98 97 99 97 88 77 71 86 73 78 96 96 75 93 87 87 78 70 63 63 67 47 44 50 55 60 64 46 37 28 27 24
25 100 100 52 40 51 44 31 50 94 97 98 92 69 46 71 98 97 100 99 99 97 94 89 78 72 74 87 81 76 58 57 59 44 69 60 83 72 84 95 85 76 66 59 53 70 70 61 43 40 36 32 36 31
16 50 99 100 57 82 100 81 68 94 100 98 90 68 57 77 90 100 98 96 94 82 72 63 54 53 57 73 78 75 65 66 55 53 47 72 91 80 94 88 78 67 78 90 82 80 72 48 35 31 30 29 26 21
16 24 100 100 98 100 96 94 75 88 99 100 89 63 57 60 86 92 96 84 70 62 61 69 60 60 54 68 76 75 68 57 51 46 52 82 97 97 93 86 78 75 63 56 49 44 40 38 36 30 26 24 22 23
21 34 78 100 99 95 96 98 100 100 100 95 85 62 60 61 56 58 57 57 62 62 58 82 88 79 76 88 85 72 63 57 52 77 85 78 79 69 57 57 69 58 42 40 38 38 37 33 31 29 27 25 25 32
98 84 99 98 99 99 98 100 100 100 98 87 78 69 64 58 58 55 62 64 74 70 69 82 93 85 94 96 86 79 68 59 80 66 60 52 44 38 36 35 34 34 35 36 38 37 36 36 36 36 33 34 48 51
71 100 98 100 97 100 97 100 100 99 94 80 70 63 56 59 65 58 66 74 81 83 82 87 89 92 95 80 62 53 54 56 60 52 42 39 36 36 37 38 37 39 42 43 45 47 50 52 50 48 54 62 72 68
90 100 96 100 99 99 100 99 98 94 82 72 60 57 68 64 61 65 63 65 74 81 80 87 96 70 46 46 58 67 70 68 59 45 44 40 40 41 42 43 46 51 58 59 62 66 69 70 71 73 76 80 76 75
98 100 97 100 100 100 100 100 87 86 73 68 61 61 67 64 59 56 54 63 65 68 70 73 53 47 51 59 71 71 61 61 70 63 51 50 53 55 54 64 71 79 84 82 88 95 96 89 86 90 90 87 83 77
100 99 100 100 93 94 100 96 92 80 72 70 63 64 60 56 52 48 47 48 58 60 56 50 51 60 62 61 69 72 78 87 85 81 75 66 67 78 88 92 94 91 89 89 96 85 92 99 99 95 93 89 87 84
100 98 100 100 100 100 100 98 94 88 88 76 62 60 56 48 48 53 51 46 44 55 72 65 63 61 59 69 80 80 81 76 76 79 86 99 97 94 95 97 96 92 95 100 97 84 73 79 87 91 92 84 83 77
99 100 99 98 99 98 89 81 82 74 83 69 59 66 63 59 56 59 61 50 57 55 52 56 60 66 72 80 80 77 82 77 73 80 84 84 94 97 97 98 100 97 94 97 99 96 94 93 91 90 87 84 80 81
99 98 98 97 94 86 76 72 73 76 75 72 71 68 69 65 72 73 52 50 50 54 62 70 77 92 83 75 76 71 80 83 84 83 92 95 82 85 92 93 95 95 99 99 100 100 100 100 100 99 100 98 96 97
100 96 92 84 80 75 67 67 72 75 79 84 87 84 87 90 98 79 53 58 60 78 96 100 94 80 76 73 80 83 88 89 86 78 89 96 91 90 94 96 94 95 95 96 93 90 90 92 93 94 96 98 96 96
96 93 82 76 74 71 76 75 77 80 84 89 99 96 97 100 82 62 55 74 88 97 88 76 85 85 87 91 87 86 88 93 94 91 95 98 98 94 86 82 80 83 90 92 89 88 90 93 94 97 98 99 100 98
92 90 83 84 86 90 88 85 86 92 97 98 96 98 99 93 70 68 88 100 96 92 92 98 99 98 98 92 86 90 94 95 98 99 99 99 96 94 93 92 89 88 87 89 92 91 89 91 96 97 97 99 99 98
90 93 95 96 94 95 96 91 99 100 97 100 100 100 100 99 89 100 99 96 100 99 99 100 99 99 98 96 97 96 94 94 96 99 100 100 99 99 100 100 100 100 100 100 98 96 96 95 95 95 98 98 98 98
95 98 99 95 99 98 99 99 93 88 97 92 86 80 72 78 95 100 100 100 98 99 100 100 100 91 94 97 99 99 96 91 89 84 85 90 93 98 99 99 100 99 98 98 100 98 93 92 92 94 96 96 97 95
92 96 100 98 98 88 80 83 62 60 59 63 66 68 80 97 100 98 95 97 99 100 100 99 98 94 90 89 88 91 87 93 96 89 84 87 92 97 100 100 99 99 98 97 98 99 98 96 96 96 96 96 98 99
96 93 87 80 71 63 58 54 54 62 73 80 78 85 92 99 99 92 95 98 100 100 99 96 90 92 91 89 81 45 40 51 52 55 56 66 80 98 98 99 99 98 98 98 97 98 98 98 98 98 98 97 98 99
98 91 72 56 52 54 53 68 72 71 71 70 78 91 99 98 99 95 100 100 100 93 89 84 87 91 92 88 60 44 36 35 40 43 45 51 65 98 98 98 99 99 98 98 98 98 98 97 97 97 97 97 97 96
57 60 64 68 72 79 86 88 81 74 71 88 99 98 99 99 100 100 100 100 93 89 87 86 96 92 57 42 38 35 35 35 38 41 47 52 76 100 100 99 99 98 98 98 98 98 97 97 97 97 97 97 97 92
Wind_Speed
35 34 39 44 45 45 43 41 41 41 39 39 41 41 40 38 37 37 37 37 36 38 35 33 32 31 32 32 31 29 26 26 26 25 24 23 23 26 28 31 27 29 23 22 20 15 19 20 18 21 23 28 25 28
26 27 29 29 30 31 34 33 35 36 35 35 35 36 36 35 33 35 33 35 35 35 32 31 30 32 34 30 32 35 33 23 18 19 23 18 23 23 24 25 25 34 37 30 29 31 30 30 32 33 37 35 42 40
17 20 22 23 23 25 27 29 29 29 29 30 29 26 24 27 28 28 28 28 31 36 37 35 30 33 35 29 31 36 35 30 35 35 40 39 36 30 32 34 34 36 35 42 39 47 37 34 38 44 48 46 42 43
18 18 17 18 20 22 22 22 24 26 28 29 29 29 29 29 29 28 29 30 29 31 38 39 32 32 31 18 19 23 24 26 31 30 35 44 45 36 40 46 52 39 36 41 49 49 49 53 53 49 44 46 50 48
26 26 27 27 26 26 25 25 26 27 27 27 27 28 30 31 31 30 30 29 30 28 36 44 38 33 35 35 32 32 31 30 31 35 42 46 47 43 50 50 61 51 51 46 51 45 45 47 40 40 42 43 45 47
29 29 30 32 33 30 29 30 31 31 31 31 31 30 30 30 30 29 30 31 30 31 37 41 38 34 38 39 33 31 33 35 39 43 45 47 47 42 41 48 52 43 39 38 41 41 38 43 43 45 46 50 51 54
24 25 26 26 27 27 28 28 28 28 30 31 32 32 32 32 32 29 30 31 29 23 25 27 22 12 5 10 9 14 21 26 27 31 37 39 40 39 44 49 47 47 49 49 45 43 43 42 46 44 44 44 42 41
21 20 21 21 21 22 21 22 21 21 22 23 24 26 26 27 27 23 24 26 26 24 24 17 22 24 25 27 24 17 18 20 27 31 35 34 35 35 39 42 42 42 39 38 40 41 43 47 52 54 53 46 34 31
24 23 20 17 15 18 21 21 20 19 19 19 19 19 20 20 18 16 15 18 18 20 17 19 25 20 12 10 17 29 29 28 27 32 35 30 27 18 22 30 33 36 35 40 37 37 36 32 23 18 17 15 11 10
24 24 23 22 20 15 14 17 19 19 19 18 17 16 13 9 11 13 14 13 15 16 22 26 25 27 23 21 16 15 8 10 14 16 16 19 26 10 8 8 16 14 7 4 10 11 18 14 20 22 21 22 23 22
20 21 23 22 20 20 21 15 15 15 17 17 17 13 12 13 12 8 6 6 7 4 6 4 2 5 9 13 15 11 10 10 12 11 10 13 14 5 11 25 30 24 22 29 30 32 33 27 23 23 21 20 22 24
17 17 17 18 19 18 18 17 18 16 15 14 15 16 13 9 6 5 5 5 7 5 5 1 1 6 10 13 10 5 9 7 6 14 8 1 12 29 22 23 28 27 25 30 32 29 25 26 28 27 27 27 27 28
16 12 13 14 15 14 15 15 13 14 15 15 15 9 5 4 5 4 5 5 3 6 8 10 15 18 15 8 8 7 7 10 17 13 12 16 12 19 15 16 20 21 23 26 26 26 29 32 33 31 31 32 33 34
16 13 11 12 13 10 10 11 12 14 15 14 11 6 5 4 4 6 6 5 11 15 16 17 19 17 17 13 11 9 15 13 10 15 22 13 9 13 18 22 25 28 27 28 32 34 36 37 34 34 34 35 36 38
17 14 11 11 10 12 11 9 11 15 14 12 6 4 7 6 5 10 10 16 15 16 18 17 16 16 17 13 9 9 8 9 11 20 22 15 22 26 29 28 29 32 35 36 36 36 37 37 37 37 37 38 39 39
16 13 12 8 7 10 12 12 13 13 12 10 11 9 6 11 13 15 18 19 19 18 17 16 15 11 12 9 9 10 13 20 26 21 25 28 31 36 38 39 38 40 40 39 38 37 37 37 38 40 40 39 38 37
13 11 11 9 8 11 13 17 17 15 15 10 11 13 13 14 13 12 13 13 15 17 16 14 8 9 9 9 14 13 20 29 26 34 32 33 36 38 41 42 42 42 41 40 40 40 41 41 42 40 39 34 30 31
15 11 13 13 12 12 14 17 16 13 18 19 18 14 14 13 12 11 7 11 13 14 14 18 20 22 17 21 29 29 30 31 33 36 38 39 40 41 42 44 43 43 45 46 45 43 40 36 34 33 32 30 32 32
16 13 15 13 13 12 13 15 16 22 24 22 18 11 8 9 11 13 15 14 14 15 19 21 17 26 31 32 31 31 31 31 37 40 42 42 43 44 46 47 46 44 42 41 40 38 36 34 34 33 33 36 38 39
15 14 15 13 12 11 13 12 14 14 14 14 10 8 9 10 12 15 13 15 19 21 24 27 30 29 28 23 23 29 33 36 38 41 43 41 40 41 43 46 48 49 50 49 48 46 45 44 42 41 42 42 42 39
18 19 16 15 13 12 12 13 13 10 12 16 16 17 21 18 18 18 17 20 22 24 28 31 25 21 25 27 28 26 23 28 36 39 44 47 46 47 47 46 45 44 43 42 41 40 40 42 42 40 38 37 37 38
22 19 16 16 13 14 15 15 17 24 23 22 18 17 20 19 18 18 19 19 19 22 20 19 20 20 17 13 16 26 36 37 38 41 41 38 39 39 37 35 35 35 34 32 31 31 33 36 35 34 33 33 35 36
19 17 18 14 13 14 13 14 13 13 12 16 15 17 17 19 19 19 19 23 12 5 7 9 10 13 16 25 34 36 37 40 40 36 35 34 37 37 36 35 33 32 31 28 29 31 32 30 28 27 28 29 31 33
14 13 12 9 9 7 9 10 9 10 11 11 13 17 20 21 20 22 21 5 2 9 11 13 16 29 36 34 39 40 34 32 33 34 34 41 43 40 36 34 31 30 31 33 32 31 29 29 29 29 30 31 31 31
14 9 5 7 7 5 3 3 3 5 10 15 19 20 18 20 22 21 8 4 9 14 19 31 35 36 38 42 36 29 30 33 37 41 39 37 35 34 32 29 27 27 29 31 31 30 30 29 28 27 25 25 26 27
8 4 4 3 2 0 3 6 8 15 18 22 17 17 20 21 17 11 6 12 20 32 35 37 41 40 33 28 32 34 37 40 38 34 31 30 30 31 31 30 27 23 23 24 25 26 25 24 24 24 24 23 21 21
8 4 4 4 6 8 11 13 15 18 22 25 20 17 11 6 6 8 16 27 32 35 37 38 33 28 31 35 37 36 34 32 32 31 31 30 29 29 30 30 30 28 28 27 26 26 25 24 23 21 19 17 17 18
8 10 10 10 12 14 16 17 20 24 20 12 14 15 10 13 22 27 29 33 36 36 30 25 24 26 32 39 35 30 29 28 25 25 25 25 24 23 24 24 26 27 27 27 26 25 23 21 19 16 14 14 12 13
11 12 11 11 13 15 19 20 19 14 15 18 21 23 26 26 28 32 33 34 29 24 20 21 24 28 34 38 31 27 30 28 26 26 25 24 22 23 25 25 25 25 25 23 21 21 19 17 14 11 11 11 10 11
11 10 13 13 13 12 12 13 15 17 19 21 22 25 27 28 30 30 27 24 18 18 21 26 31 38 38 33 26 24 26 27 27 30 30 30 30 29 28 26 24 23 21 19 16 13 13 11 9 9 10 10 10 9
11 9 10 11 13 9 12 16 19 20 22 25 23 21 19 20 20 20 16 16 18 19 22 27 33 35 32 30 30 29 24 24 25 26 27 27 28 28 27 26 24 22 20 17 14 11 8 7 6 7 8 9 8 8
10 12 12 12 14 17 21 22 26 27 24 18 15 10 7 9 10 13 15 17 18 21 25 34 35 32 31 31 31 31 31 30 28 27 26 26 26 27 26 25 22 21 18 16 13 11 9 8 8 9 8 8 6 6
12 14 17 19 23 24 25 28 28 26 18 6 3 6 7 6 7 10 13 17 22 29 35 37 34 34 32 31 31 30 29 27 27 26 25 23 23 24 24 22 20 18 17 15 13 11 10 10 9 8 7 5 5 6
Wind_Direction
268 267 262 262 265 268 270 270 269 269 269 270 270 270 272 273 272 272 271 271 272 270 270 272 270 270 269 270 272 271 271 269 266 256 255 260 255 256 254 252 250 254 250 235 229 238 271 289 272 258 294 300 291 292
258 263 268 272 271 269 266 268 268 268 269 271 272 270 270 269 268 269 266 267 269 270 268 267 268 270 269 267 266 265 264 252 250 253 256 255 250 252 261 262 257 252 252 258 250 264 273 277 288 290 294 286 287 291
250 256 258 262 267 269 269 270 272 270 271 270 268 267 271 276 275 279 274 268 271 274 276 275 270 260 261 264 265 265 268 269 264 265 261 261 262 264 260 267 271 264 263 262 267 273 274 275 274 281 288 286 283 285
287 280 274 267 263 259 259 262 264 265 266 267 268 270 271 272 272 273 275 278 281 283 284 278 271 254 263 270 264 258 265 271 266 264 262 259 259 265 265 270 273 274 272 271 269 271 275 275 280 286 283 275 275 277
274 277 278 276 275 273 271 269 267 266 269 268 267 267 268 269 270 269 270 271 275 274 276 283 275 268 275 278 278 276 275 269 265 263 261 263 265 261 271 272 271 279 284 273 275 296 287 289 287 279 272 271 271 272
263 263 266 272 278 277 276 276 276 276 274 274 275 274 273 273 275 276 277 271 266 267 273 279 287 287 283 282 276 267 264 263 263 266 265 266 268 267 267 269 283 286 290 292 293 295 285 286 287 282 268 269 270 270
265 267 268 269 270 274 278 280 279 279 279 278 278 278 278 277 274 271 270 275 274 272 269 279 287 293 210 198 213 263 269 274 272 269 266 269 271 269 267 273 287 288 292 290 291 291 292 289 280 281 271 271 273 271
270 271 270 270 273 276 278 280 283 285 285 285 286 285 283 282 281 278 272 269 265 259 251 261 263 272 276 282 297 288 268 269 270 271 272 276 283 281 276 284 283 284 288 289 288 285 279 273 271 269 273 272 260 250
267 266 270 272 280 278 276 278 282 286 290 294 297 295 289 286 284 279 267 263 260 249 239 247 260 278 272 273 287 291 289 285 277 269 273 278 281 266 273 277 275 272 285 290 282 275 269 267 253 244 248 247 262 278
265 265 266 268 268 271 283 282 279 282 287 293 300 305 308 287 285 281 275 269 263 256 242 254 268 272 287 291 305 317 296 268 262 277 280 264 257 262 300 325 315 309 265 308 332 287 347 347 6 3 5 355 341 338
275 268 262 262 265 268 268 274 285 290 289 292 298 305 305 298 288 272 246 202 219 242 257 266 284 299 300 313 320 313 294 282 269 264 294 265 235 180 356 339 344 335 339 345 350 354 357 358 351 345 338 326 318 321
280 276 271 265 264 267 271 271 265 275 286 297 301 304 304 283 231 213 206 202 211 218 227 174 25 320 329 328 325 309 301 285 270 330 322 321 327 333 342 343 345 352 351 345 340 339 335 330 328 325 321 314 310 305
277 277 270 267 266 267 270 268 261 267 275 290 302 315 291 250 214 216 198 212 249 324 315 326 313 319 323 309 291 278 270 270 294 302 286 302 310 328 325 314 320 326 321 318 318 312 309 313 314 313 310 308 304 302
262 260 264 265 260 257 270 274 250 259 272 281 299 275 269 232 225 204 200 270 303 319 315 316 312 312 308 298 283 268 272 275 261 278 296 308 301 304 298 299 308 310 306 299 300 301 303 307 308 306 305 303 303 304
251 255 256 260 262 267 251 268 251 255 267 270 268 248 243 236 264 301 308 322 310 306 302 301 298 290 296 282 257 252 252 254 269 283 298 304 311 308 313 307 299 306 306 303 303 304 305 304 302 301 302 303 302 302
236 250 249 241 237 249 248 240 251 261 263 258 236 230 244 283 287 284 284 284 285 289 296 291 300 289 274 234 237 243 259 275 291 301 301 305 299 298 297 296 298 303 305 304 304 304 303 303 303 302 302 301 298 294
231 250 236 231 244 230 244 245 255 261 263 250 259 274 282 293 294 280 281 290 286 285 283 287 273 270 276 265 271 277 279 302 291 305 298 293 296 301 302 302 303 305 306 306 305 303 301 302 302 300 297 294 295 295
208 239 238 226 244 233 241 248 256 262 265 274 283 297 291 292 293 294 287 298 290 290 289 276 276 269 260 271 283 305 308 308 300 296 296 297 299 302 303 303 303 302 301 302 302 302 303 303 302 303 299 299 298 301
193 227 220 222 242 242 248 261 261 269 276 287 295 299 290 299 294 291 279 273 274 282 287 284 271 278 293 305 308 305 299 295 294 296 299 302 302 301 301 302 304 305 305 306 306 305 304 304 303 303 303 303 301 304
196 222 212 219 231 241 250 260 281 285 295 300 294 275 293 302 308 313 303 280 281 279 276 274 285 299 300 301 298 292 292 296 303 304 303 304 305 306 305 305 303 302 301 301 299 298 296 296 296 295 296 298 301 302
188 200 201 213 226 237 255 272 279 284 301 302 301 297 298 305 306 307 295 286 280 277 282 291 299 293 290 288 292 300 305 308 305 303 302 304 306 303 303 304 304 301 300 299 299 300 297 295 295 295 293 294 296 298
188 187 201 219 226 245 255 264 276 290 295 296 303 308 307 304 305 309 307 305 307 315 305 295 295 299 303 306 298 302 308 307 306 305 305 305 306 307 308 311 313 313 311 308 305 305 308 307 303 299 295 294 296 300
182 203 205 217 238 248 267 280 280 295 295 302 314 312 310 317 317 323 312 320 331 323 338 335 329 315 305 303 310 314 312 310 310 311 314 314 313 310 306 307 304 305 308 309 307 308 311 316 315 309 305 303 302 303
193 191 202 224 228 242 279 287 302 301 306 322 322 319 319 323 327 324 330 342 356 331 324 316 307 306 314 318 322 319 315 313 312 314 313 312 314 312 308 306 304 300 297 300 305 307 309 309 309 308 305 304 304 305
181 190 219 236 246 238 275 315 323 324 333 330 325 329 319 321 320 317 342 357 312 327 323 317 318 320 321 321 320 320 319 318 318 317 318 314 315 316 315 314 312 306 301 301 302 303 306 308 310 311 312 313 314 315
210 221 222 232 227 307 317 316 316 319 320 317 314 318 317 311 308 313 338 317 315 319 320 319 321 320 322 323 324 324 322 319 320 323 326 325 323 320 320 321 321 322 316 313 311 312 314 315 316 316 318 320 321 321
227 233 241 278 300 305 306 312 310 309 310 309 313 315 312 282 286 323 318 310 315 316 315 319 321 327 329 329 326 323 324 327 329 329 330 330 328 325 323 323 322 322 320 318 316 315 316 317 319 320 323 326 325 327
235 256 276 293 288 293 298 305 305 309 316 313 302 300 288 285 301 313 309 311 311 315 317 320 324 328 333 336 333 330 330 329 328 328 332 334 334 330 326 323 320 319 318 318 316 315 316 318 320 323 324 327 331 333
289 305 300 298 293 293 297 303 306 311 309 303 302 302 305 311 309 307 306 306 311 315 318 317 313 317 322 328 330 331 332 334 333 335 340 343 343 341 338 334 329 325 321 320 318 315 316 319 321 322 325 332 341 346
305 302 297 299 299 306 319 307 304 304 303 303 303 305 303 303 298 298 303 310 313 311 313 319 323 324 329 333 334 337 335 334 337 337 340 346 347 346 344 340 338 336 333 330 329 324 318 318 318 323 331 336 340 343
309 300 300 303 304 309 301 301 305 308 311 311 308 299 296 292 293 300 307 312 309 319 325 330 331 332 332 333 334 338 343 340 338 337 336 337 340 344 346 346 345 346 346 345 344 343 339 329 325 326 328 330 330 336
305 308 309 310 311 314 315 316 316 319 322 320 307 308 332 335 324 323 324 321 318 318 325 334 338 338 336 334 335 336 337 338 337 338 339 339 344 346 349 351 350 351 351 350 349 349 348 343 338 334 330 330 331 334
312 313 317 316 317 317 317 317 320 324 335 332 1 349 355 6 325 329 336 322 318 325 329 333 336 335 335 335 334 334 333 333 334 335 337 339 341 346 350 353 354 354 355 355 356 356 354 352 351 351 352 350 345 342